[[{"header":{"parameterUnit":"m.s-1","parameterCategory":1,"la1":30.2991,"la2":30.254,"lo1":-89.0895,"lo2":-89.0444,"dy":0.0017,"dx":0.0017,"nx":28,"ny":28,"refTime":"2025-04-27T09:00:00:Z","depth":0,"parameterNumber":2,"parameterNumberName":"U-component_of_WINDS"},"data":[0,0,0,0,0,0,0,0,0,0,0,0,0,0,0,0,0,0,0,0,0,0,0,0,0,0,0,0,0,0,0,0,0,0,0,0,0,0,0,0,0,0,0,0,0,0,0,0,0,0,0,0,0,0,0,0,0,0,0.4523,0.4524,0,0.459,0.4591,0.4592,0.4584,0.4583,0.4582,0.4581,0.4653,0.4656,0.4659,0,0,0,0,0,0,0,0,0,0,0,0,0,0.439,0.4392,0.4523,0.4524,0.4525,0.459,0.4591,0.4592,0.4585,0.4583,0.4582,0.4581,0.4652,0.4656,0.4659,0,0,0,0,0,0,0,0,0,0,0,0,0,0.4452,0.4393,0.4523,0.4529,0.453,0.459,0.4591,0.4592,0.4585,0.4583,0.4582,0.458,0.4651,0.4656,0.466,0.4719,0,0,0.4673,0.4675,0,0,0,0,0,0,0,0,0.4448,0.4456,0.4527,0.4528,0.453,0.4577,0.457,0.4635,0.4585,0.4564,0.4581,0.4579,0.463,0.4636,0.4652,0.4722,0.4726,0.4674,0.4676,0.4678,0.4679,0,0,0,0,0,0,0,0.4444,0.4454,0.455,0.4528,0.453,0.4529,0.4536,0.4583,0.4605,0.4566,0.4565,0.4573,0.463,0.4648,0.4654,0.4727,0.4674,0.4677,0.468,0.4682,0.4848,0.4849,0,0,0,0,0,0,0.4438,0.445,0.4547,0.4552,0.4484,0.4532,0.454,0.4564,0.4605,0.4609,0.4575,0.4573,0.4641,0.4648,0.4656,0.4727,0.4678,0.4682,0.4685,0.4846,0.4848,0.485,0,0,0,0,0,0,0.4435,0.4446,0.4545,0.4501,0.4513,0.4536,0.4563,0.4566,0.4583,0.4611,0.4615,0.4588,0.464,0.465,0.4703,0.4729,0.4684,0.4688,0.4844,0.4846,0.4849,0.487,0,0,0,0,0,0,0.4431,0.4446,0.4468,0.4501,0.4515,0.459,0.4564,0.4568,0.4591,0.4589,0.4625,0.463,0.464,0.4696,0.4707,0.4735,0.4692,0.4841,0.4845,0.4848,0.4867,0.4873,0.4878,0,0,0,0,0,0.4426,0.4472,0.4469,0.4481,0.4544,0.4592,0.46,0.4609,0.4593,0.4616,0.4633,0.4629,0.4725,0.4702,0.4714,0.4743,0.484,0.4844,0.4848,0.4864,0.4872,0.4878,0,0,0,0,0,0,0.4443,0.4477,0.4474,0.4532,0.4558,0.459,0.4619,0.4617,0.465,0.4647,0.4658,0.4666,0.472,0.4737,0.4711,0.4802,0.478,0.4787,0.4789,0.4796,0.4801,0.4796,0.4695,0,0,0,0,0,0.4453,0.4488,0.4516,0.4565,0.4578,0.4596,0.4618,0.4622,0.4651,0.4663,0.4684,0.4713,0.475,0.4774,0.4809,0.4869,0.4877,0.4895,0.4901,0.4905,0.4911,0.4943,0.4951,0.4863,0.4863,0.4863,0,0,0.4475,0.4498,0.452,0.4569,0.459,0.4626,0.4606,0.4646,0.4673,0.4669,0.472,0.4737,0.477,0.4826,0.4852,0.4842,0.4936,0.491,0.4913,0.4917,0.4948,0.4956,0.4963,0.4866,0.4865,0.4865,0,0,0.4534,0.4555,0.4596,0.4618,0.465,0.4661,0.4671,0.4703,0.4713,0.4764,0.4761,0.4794,0.4857,0.488,0.49,0.4965,0.4962,0.4976,0.5006,0.5037,0.5043,0.505,0.5072,0.508,0.4982,0.4982,0.4982,0,0.4557,0.4611,0.4619,0.4658,0.4679,0.4675,0.4718,0.4739,0.4781,0.4796,0.4784,0.4861,0.4884,0.4945,0.496,0.4977,0.4988,0.4972,0.5042,0.5048,0.5054,0.5075,0.5084,0.4983,0.4983,0.4983,0.4983,0,0.4638,0.4675,0.4705,0.4744,0.4769,0.481,0.4824,0.4848,0.485,0.4863,0.4914,0.494,0.498,0.4995,0.4998,0.5056,0.5048,0.5039,0.5017,0.5064,0.5084,0.5092,0.4986,0.4985,0.4985,0.4984,0,0,0.471,0.4751,0.4762,0.4779,0.4813,0.4842,0.4883,0.492,0.494,0.4969,0.5003,0.5056,0.5046,0.5069,0.5075,0.5102,0.515,0.5089,0.509,0.5099,0.5215,0.5221,0.5231,0.5148,0.515,0.5151,0.5212,0,0.4771,0.4841,0.4848,0.4911,0.4945,0.4942,0.4977,0.5002,0.5014,0.5045,0.506,0.5096,0.5082,0.5095,0.5122,0.5139,0.5174,0.5135,0.518,0.5182,0.5172,0.5242,0.5249,0.5305,0.522,0.5221,0.5222,0,0.4852,0.4882,0.4947,0.4975,0.499,0.5021,0.5055,0.5085,0.5113,0.512,0.5144,0.5146,0.5187,0.5164,0.5221,0.5194,0.5213,0.5224,0.5227,0.5231,0.5205,0.5248,0.5324,0.5332,0.5235,0.5234,0.5233,0,0.4897,0.4953,0.4999,0.5014,0.5048,0.507,0.5085,0.5111,0.5133,0.5163,0.5177,0.5212,0.5231,0.5258,0.5269,0.5251,0.5326,0.5303,0.5333,0.5333,0.5349,0.5348,0.5429,0.5362,0.5362,0.5362,0.5361,0,0.4965,0.5005,0.502,0.5048,0.5093,0.51,0.5145,0.5159,0.5182,0.5214,0.5213,0.5243,0.5255,0.5287,0.5296,0.5342,0.5351,0.5358,0.536,0.5358,0.5357,0.537,0.5367,0.5364,0.5363,0.5363,0.5363,0,0.5023,0.5034,0.5084,0.5111,0.5118,0.515,0.5174,0.5201,0.5213,0.5252,0.5262,0.5281,0.5318,0.5331,0.5377,0.5383,0.5436,0.5435,0.5426,0.5426,0.5455,0.5452,0.5547,0.556,0.5485,0.5485,0.5486,0,0.5065,0.5095,0.5125,0.5145,0.516,0.5193,0.5214,0.5223,0.5245,0.5278,0.5301,0.5338,0.5367,0.5427,0.5445,0.548,0.5479,0.551,0.5485,0.5481,0.5479,0.5477,0.5479,0.5515,0.5516,0.5516,0.5517,0,0.5138,0.5141,0.5171,0.5203,0.5228,0.5254,0.5279,0.5295,0.5308,0.5333,0.537,0.5392,0.5438,0.5474,0.5509,0.5525,0.5523,0.5524,0.5533,0.5531,0.5525,0.5528,0.5438,0.5522,0.5522,0.5522,0.5521,0.5521,0.5189,0.5215,0.5239,0.5272,0.5291,0.5314,0.5341,0.5355,0.5385,0.5422,0.5425,0.5465,0.5491,0.5538,0.5555,0.5587,0.5578,0.5591,0.5594,0.5597,0.5599,0.5519,0.5593,0.5593,0.5593,0.5593,0.5593,0,0.5261,0.5276,0.5306,0.534,0.5366,0.536,0.5387,0.5409,0.5443,0.5467,0.5496,0.5538,0.5572,0.5592,0.5627,0.5648,0.5648,0.5657,0.5655,0.5659,0.5605,0.5593,0.5656,0.5656,0.5656,0.5656,0.5656,0.5656,0.5302,0.5346,0.5352,0.5405,0.542,0.5457,0.5473,0.5494,0.5513,0.5559,0.5587,0.5599,0.5622,0.5657,0.5689,0.5694,0.5707,0.5716,0.5721,0.567,0.5663,0.5657,0.5646,0.5719,0.5719,0.5772,0.5773,0.5773]},{"header":{"parameterUnit":"m.s-1","parameterCategory":1,"la1":30.2991,"la2":30.254,"lo1":-89.0895,"lo2":-89.0444,"dy":0.0017,"dx":0.0017,"nx":28,"ny":28,"refTime":"2025-04-27T09:00:00:Z","depth":0,"parameterNumber":3,"parameterNumberName":"V-component_of_WINDS"},"data":[0,0,0,0,0,0,0,0,0,0,0,0,0,0,0,0,0,0,0,0,0,0,0,0,0,0,0,0,0,0,0,0,0,0,0,0,0,0,0,0,0,0,0,0,0,0,0,0,0,0,0,0,0,0,0,0,0,0,1.2998,1.2998,0,1.2999,1.2999,1.2999,1.297,1.297,1.2969,1.2968,1.2968,1.2969,1.297,0,0,0,0,0,0,0,0,0,0,0,0,0,1.2971,1.2972,1.2998,1.2998,1.2998,1.2999,1.2999,1.2999,1.297,1.2969,1.2969,1.2968,1.2968,1.2969,1.297,0,0,0,0,0,0,0,0,0,0,0,0,0,1.2979,1.2972,1.2998,1.2984,1.2983,1.2999,1.2999,1.2999,1.2971,1.2969,1.2968,1.2967,1.2968,1.2969,1.297,1.2999,0,0,1.2973,1.2973,0,0,0,0,0,0,0,0,1.2978,1.298,1.2986,1.2985,1.2984,1.2983,1.2989,1.2999,1.2971,1.2975,1.2968,1.2967,1.2974,1.2975,1.2977,1.2999,1.2999,1.2973,1.2974,1.2974,1.2974,0,0,0,0,0,0,0,1.2978,1.2979,1.2998,1.2986,1.2985,1.2977,1.2977,1.2991,1.2981,1.2975,1.2973,1.2973,1.2973,1.2976,1.2977,1.2999,1.2973,1.2974,1.2975,1.2975,1.3044,1.3046,0,0,0,0,0,0,1.2979,1.2979,1.2998,1.2998,1.2978,1.2979,1.2979,1.2984,1.2981,1.2979,1.2974,1.2972,1.2975,1.2976,1.2977,1.3011,1.2974,1.2975,1.2976,1.3043,1.3045,1.3046,0,0,0,0,0,0,1.2979,1.2981,1.2998,1.2988,1.299,1.298,1.2987,1.2985,1.2988,1.298,1.2978,1.2979,1.2974,1.2975,1.2994,1.301,1.2976,1.2977,1.3042,1.3044,1.3045,1.3079,0,0,0,0,0,0,1.2978,1.2981,1.2992,1.2989,1.299,1.3015,1.2988,1.2986,1.299,1.2987,1.2984,1.2983,1.2973,1.2992,1.2995,1.3011,1.2977,1.304,1.3043,1.3045,1.3076,1.3081,1.3086,0,0,0,0,0,1.2977,1.3001,1.2993,1.2995,1.3004,1.3016,1.3017,1.3006,1.2991,1.3002,1.2997,1.2983,1.3008,1.2994,1.2997,1.3014,1.3039,1.3042,1.3045,1.3074,1.308,1.3086,0,0,0,0,0,0,1.3007,1.3001,1.2991,1.3015,1.3016,1.3011,1.3025,1.3013,1.3018,1.3015,1.3001,1.3001,1.3021,1.3019,1.3004,1.3042,1.3021,1.3024,1.3042,1.3048,1.3053,1.3053,1.2978,0,0,0,0,0,1.3017,1.3027,1.3021,1.3042,1.3044,1.3034,1.3039,1.303,1.3031,1.3031,1.3028,1.3029,1.3037,1.3042,1.305,1.3076,1.3075,1.3088,1.3093,1.3098,1.3101,1.3114,1.312,1.3055,1.3055,1.3055,0,0,1.3036,1.3034,1.3041,1.3048,1.3048,1.3059,1.3035,1.3048,1.3056,1.3033,1.305,1.3048,1.3048,1.307,1.308,1.3069,1.3118,1.3101,1.3104,1.3105,1.3118,1.3124,1.3129,1.3057,1.3057,1.3056,0,0,1.3077,1.3076,1.3094,1.3095,1.3095,1.3089,1.3093,1.309,1.3088,1.3105,1.3088,1.3097,1.3112,1.3113,1.3115,1.3157,1.3143,1.3159,1.3185,1.3199,1.3204,1.3208,1.3223,1.3229,1.3162,1.3162,1.3162,0,1.3101,1.3117,1.3105,1.3119,1.3123,1.3103,1.3121,1.3122,1.3125,1.3128,1.3116,1.3133,1.3132,1.3154,1.3165,1.3167,1.3172,1.3159,1.3204,1.3208,1.3212,1.3226,1.3232,1.3164,1.3164,1.3164,1.3164,0,1.3147,1.3158,1.3173,1.3176,1.3181,1.3197,1.3187,1.3194,1.3185,1.3179,1.3197,1.3195,1.3201,1.3206,1.3197,1.3227,1.322,1.3207,1.3185,1.3221,1.3234,1.3239,1.3167,1.3166,1.3166,1.3165,0,0,1.3206,1.3203,1.3208,1.321,1.3209,1.3218,1.3233,1.3239,1.3245,1.3248,1.326,1.3272,1.326,1.3262,1.3253,1.3265,1.3298,1.325,1.3249,1.3259,1.3331,1.3342,1.3348,1.329,1.3291,1.3291,1.3331,0,1.3246,1.3272,1.3261,1.3288,1.3298,1.328,1.3293,1.3294,1.329,1.3298,1.3293,1.3302,1.3284,1.3286,1.3297,1.3292,1.3313,1.3289,1.3301,1.3301,1.3301,1.3355,1.3366,1.3404,1.3336,1.3337,1.3338,0,1.3296,1.3301,1.3329,1.3326,1.333,1.3342,1.3347,1.3355,1.3356,1.3352,1.3355,1.3343,1.3358,1.3337,1.3356,1.334,1.3345,1.3343,1.3344,1.3345,1.3322,1.3357,1.3416,1.3421,1.3346,1.3345,1.3344,0,1.3337,1.335,1.3369,1.337,1.3368,1.3377,1.3376,1.3375,1.338,1.3384,1.3387,1.3393,1.3396,1.3401,1.3392,1.3377,1.3412,1.3391,1.3409,1.341,1.3418,1.3417,1.3478,1.342,1.342,1.342,1.342,0,1.3382,1.34,1.3387,1.3398,1.3418,1.3405,1.3424,1.3422,1.3421,1.3432,1.3416,1.3426,1.3413,1.3421,1.3414,1.3431,1.3433,1.343,1.3427,1.3431,1.3432,1.3434,1.3431,1.3422,1.3421,1.3421,1.3421,0,1.3431,1.3423,1.3442,1.3438,1.3438,1.3452,1.3449,1.3459,1.3453,1.3467,1.3469,1.3461,1.347,1.3461,1.3469,1.3464,1.3488,1.3482,1.3488,1.3486,1.3505,1.3504,1.3569,1.3577,1.3515,1.3515,1.3516,0,1.3461,1.3474,1.3472,1.3478,1.3478,1.3488,1.3492,1.3481,1.3486,1.3488,1.3498,1.3506,1.3512,1.3528,1.3522,1.3529,1.3523,1.3545,1.3524,1.3527,1.3523,1.3523,1.3524,1.355,1.3551,1.3551,1.3552,0,1.3514,1.351,1.3517,1.3523,1.3529,1.3534,1.3537,1.3542,1.353,1.3537,1.3547,1.3552,1.3561,1.3569,1.3574,1.3573,1.356,1.3559,1.3563,1.3567,1.357,1.3569,1.35,1.3557,1.3557,1.3556,1.3556,1.3556,1.3554,1.3565,1.3565,1.3574,1.3575,1.3579,1.3588,1.3584,1.3592,1.3599,1.3591,1.3603,1.3603,1.3609,1.3609,1.3618,1.3608,1.3615,1.3617,1.3619,1.3622,1.3569,1.3619,1.3619,1.3618,1.3618,1.3618,0,1.3607,1.3606,1.3614,1.3619,1.3626,1.3614,1.3617,1.3624,1.3634,1.3636,1.3642,1.3653,1.3661,1.3656,1.3663,1.3671,1.3665,1.3673,1.3672,1.3672,1.363,1.3625,1.3678,1.3678,1.3677,1.3677,1.3677,1.3677,1.3635,1.3653,1.3648,1.3667,1.3666,1.3677,1.368,1.3683,1.3684,1.3697,1.3704,1.3701,1.37,1.3706,1.3713,1.3711,1.3715,1.3724,1.3721,1.3681,1.3675,1.367,1.3665,1.3725,1.3725,1.3763,1.3763,1.3763]}]]